QPF
0.00 0.00 0.00 0.00 0.00 0.00 0.00 0.00 0.00 0.00 0.00 0.00 0.00 0.00 0.00 0.00 0.00 0.00 0.00 0.00 0.00 0.00 0.00 0.00 0.00 0.00 0.00 0.00 0.00 0.00 0.00 0.00 0.00 0.00 0.00 0.00 0.00 0.00 0.00 0.00 0.00 0.00 0.00 0.00 0.00 0.00 0.00 0.00 0.00 0.00 0.00 0.00 0.00 0.00
0.00 0.00 0.00 0.00 0.00 0.00 0.00 0.00 0.00 0.00 0.00 0.00 0.00 0.00 0.00 0.00 0.00 0.00 0.00 0.00 0.00 0.00 0.00 0.00 0.00 0.00 0.00 0.00 0.00 0.00 0.00 0.00 0.00 0.00 0.00 0.00 0.00 0.00 0.00 0.00 0.00 0.00 0.00 0.00 0.00 0.00 0.00 0.00 0.00 0.00 0.00 0.00 0.00 0.00
0.00 0.00 0.00 0.00 0.00 0.00 0.00 0.00 0.00 0.00 0.00 0.00 0.00 0.00 0.00 0.00 0.00 0.00 0.00 0.00 0.00 0.00 0.00 0.00 0.00 0.00 0.00 0.00 0.00 0.00 0.00 0.00 0.00 0.00 0.00 0.00 0.00 0.00 0.00 0.00 0.00 0.00 0.00 0.00 0.00 0.00 0.00 0.00 0.00 0.00 0.00 0.00 0.00 0.00
0.00 0.00 0.00 0.00 0.00 0.00 0.00 0.00 0.00 0.00 0.00 0.00 0.00 0.00 0.00 0.00 0.00 0.00 0.00 0.00 0.00 0.00 0.00 0.00 0.00 0.00 0.00 0.00 0.00 0.00 0.00 0.00 0.00 0.00 0.00 0.00 0.00 0.00 0.00 0.00 0.00 0.00 0.00 0.00 0.00 0.00 0.00 0.00 0.00 0.00 0.00 0.00 0.00 0.00
0.00 0.00 0.00 0.00 0.00 0.00 0.00 0.00 0.00 0.00 0.00 0.00 0.00 0.00 0.00 0.00 0.00 0.00 0.00 0.00 0.00 0.00 0.00 0.00 0.00 0.00 0.00 0.00 0.00 0.00 0.00 0.00 0.00 0.00 0.00 0.00 0.00 0.00 0.00 0.00 0.00 0.00 0.00 0.00 0.00 0.00 0.00 0.00 0.00 0.00 0.00 0.00 0.00 0.00
0.00 0.00 0.00 0.00 0.00 0.00 0.00 0.00 0.00 0.00 0.00 0.00 0.00 0.00 0.00 0.00 0.00 0.00 0.00 0.00 0.00 0.00 0.00 0.00 0.00 0.00 0.00 0.00 0.00 0.00 0.00 0.00 0.00 0.00 0.00 0.00 0.00 0.00 0.00 0.00 0.00 0.00 0.00 0.00 0.00 0.00 0.00 0.00 0.00 0.00 0.00 0.00 0.00 0.00
0.00 0.00 0.00 0.00 0.00 0.00 0.00 0.00 0.00 0.00 0.00 0.00 0.00 0.00 0.00 0.00 0.00 0.00 0.00 0.00 0.00 0.00 0.00 0.00 0.00 0.00 0.00 0.00 0.00 0.00 0.00 0.00 0.00 0.00 0.00 0.00 0.00 0.00 0.00 0.00 0.00 0.00 0.00 0.00 0.00 0.00 0.00 0.00 0.00 0.00 0.00 0.00 0.00 0.00
0.00 0.00 0.00 0.00 0.00 0.00 0.00 0.00 0.00 0.00 0.00 0.00 0.00 0.00 0.00 0.00 0.00 0.00 0.00 0.00 0.00 0.00 0.00 0.00 0.00 0.00 0.00 0.00 0.00 0.00 0.00 0.00 0.00 0.00 0.00 0.00 0.00 0.00 0.00 0.00 0.00 0.00 0.00 0.00 0.00 0.00 0.00 0.00 0.00 0.00 0.00 0.00 0.00 0.00
0.00 0.00 0.00 0.00 0.00 0.00 0.00 0.00 0.00 0.00 0.00 0.00 0.00 0.00 0.00 0.00 0.00 0.00 0.00 0.00 0.00 0.00 0.00 0.00 0.00 0.00 0.00 0.00 0.00 0.00 0.00 0.00 0.00 0.00 0.00 0.00 0.00 0.00 0.00 0.00 0.00 0.00 0.00 0.00 0.00 0.00 0.00 0.00 0.00 0.00 0.00 0.00 0.00 0.00
0.00 0.00 0.00 0.00 0.00 0.00 0.00 0.00 0.00 0.00 0.00 0.00 0.00 0.00 0.00 0.00 0.00 0.00 0.00 0.00 0.00 0.00 0.00 0.00 0.00 0.00 0.00 0.00 0.00 0.00 0.00 0.00 0.00 0.00 0.00 0.00 0.00 0.00 0.00 0.00 0.00 0.00 0.00 0.00 0.00 0.00 0.00 0.00 0.00 0.00 0.00 0.00 0.00 0.00
0.00 0.00 0.00 0.00 0.00 0.00 0.00 0.00 0.00 0.00 0.00 0.00 0.00 0.00 0.00 0.00 0.00 0.00 0.00 0.00 0.00 0.00 0.00 0.00 0.00 0.00 0.00 0.00 0.00 0.00 0.00 0.00 0.00 0.00 0.00 0.00 0.00 0.00 0.00 0.00 0.00 0.00 0.00 0.00 0.00 0.00 0.00 0.00 0.00 0.00 0.00 0.00 0.00 0.00
0.00 0.00 0.00 0.00 0.00 0.00 0.00 0.00 0.00 0.00 0.00 0.00 0.00 0.00 0.00 0.00 0.00 0.00 0.00 0.00 0.00 0.00 0.00 0.00 0.00 0.00 0.00 0.00 0.00 0.00 0.00 0.00 0.00 0.00 0.00 0.00 0.00 0.00 0.00 0.00 0.00 0.00 0.00 0.00 0.00 0.00 0.00 0.00 0.00 0.00 0.00 0.00 0.00 0.00
0.00 0.00 0.00 0.00 0.00 0.00 0.00 0.00 0.00 0.00 0.00 0.00 0.00 0.00 0.00 0.00 0.00 0.00 0.00 0.00 0.00 0.00 0.00 0.00 0.00 0.00 0.00 0.00 0.00 0.00 0.00 0.00 0.00 0.00 0.00 0.00 0.00 0.00 0.00 0.00 0.00 0.00 0.00 0.00 0.00 0.00 0.00 0.00 0.00 0.00 0.00 0.00 0.00 0.00
0.00 0.00 0.00 0.00 0.00 0.00 0.00 0.00 0.00 0.00 0.00 0.00 0.00 0.00 0.00 0.00 0.00 0.00 0.00 0.00 0.00 0.00 0.00 0.00 0.00 0.00 0.00 0.00 0.00 0.00 0.00 0.00 0.00 0.00 0.00 0.00 0.00 0.00 0.00 0.00 0.00 0.00 0.00 0.00 0.00 0.00 0.00 0.00 0.00 0.00 0.00 0.00 0.00 0.00
0.00 0.00 0.00 0.00 0.00 0.00 0.00 0.00 0.00 0.00 0.00 0.00 0.00 0.00 0.00 0.00 0.00 0.00 0.00 0.00 0.00 0.00 0.00 0.00 0.00 0.00 0.00 0.00 0.00 0.00 0.00 0.00 0.00 0.00 0.00 0.00 0.00 0.00 0.00 0.00 0.00 0.00 0.00 0.00 0.00 0.00 0.00 0.00 0.00 0.00 0.00 0.00 0.00 0.00
0.00 0.00 0.00 0.00 0.00 0.00 0.00 0.00 0.00 0.00 0.00 0.00 0.00 0.00 0.00 0.00 0.00 0.00 0.00 0.00 0.00 0.00 0.00 0.00 0.00 0.00 0.00 0.00 0.00 0.00 0.00 0.00 0.00 0.00 0.00 0.00 0.00 0.00 0.00 0.00 0.00 0.00 0.00 0.00 0.00 0.00 0.00 0.00 0.00 0.00 0.00 0.00 0.00 0.00
0.00 0.00 0.00 0.00 0.00 0.00 0.00 0.00 0.00 0.00 0.00 0.00 0.00 0.00 0.00 0.00 0.00 0.00 0.00 0.00 0.00 0.00 0.00 0.00 0.00 0.00 0.00 0.00 0.00 0.00 0.00 0.00 0.00 0.00 0.00 0.00 0.00 0.00 0.00 0.00 0.00 0.00 0.00 0.00 0.00 0.00 0.00 0.00 0.00 0.00 0.00 0.00 0.00 0.00
0.00 0.00 0.00 0.00 0.00 0.00 0.00 0.00 0.00 0.00 0.00 0.00 0.00 0.00 0.00 0.00 0.00 0.00 0.00 0.00 0.00 0.00 0.00 0.00 0.00 0.00 0.00 0.00 0.00 0.00 0.00 0.00 0.00 0.00 0.00 0.00 0.00 0.00 0.00 0.00 0.00 0.00 0.00 0.00 0.00 0.00 0.00 0.00 0.00 0.00 0.00 0.00 0.00 0.00
0.00 0.00 0.00 0.00 0.00 0.00 0.00 0.00 0.00 0.00 0.00 0.00 0.00 0.00 0.00 0.00 0.00 0.00 0.00 0.00 0.00 0.00 0.00 0.00 0.00 0.00 0.00 0.00 0.00 0.00 0.00 0.00 0.00 0.00 0.00 0.00 0.00 0.00 0.00 0.00 0.00 0.00 0.00 0.00 0.00 0.00 0.00 0.00 0.00 0.00 0.00 0.00 0.00 0.00
0.00 0.00 0.00 0.00 0.00 0.00 0.00 0.00 0.00 0.00 0.00 0.00 0.00 0.00 0.00 0.00 0.00 0.00 0.00 0.00 0.00 0.00 0.00 0.00 0.00 0.00 0.00 0.00 0.00 0.00 0.00 0.00 0.00 0.00 0.00 0.00 0.00 0.00 0.00 0.00 0.00 0.00 0.00 0.00 0.00 0.00 0.00 0.00 0.00 0.00 0.00 0.00 0.00 0.00
0.00 0.00 0.00 0.00 0.00 0.00 0.00 0.00 0.00 0.00 0.00 0.00 0.00 0.00 0.00 0.00 0.00 0.00 0.00 0.00 0.00 0.00 0.00 0.00 0.00 0.00 0.00 0.00 0.00 0.00 0.00 0.00 0.00 0.00 0.00 0.00 0.00 0.00 0.00 0.00 0.00 0.00 0.00 0.00 0.00 0.00 0.00 0.00 0.00 0.00 0.00 0.00 0.00 0.00
0.00 0.00 0.00 0.00 0.00 0.00 0.00 0.00 0.00 0.00 0.00 0.00 0.00 0.00 0.00 0.00 0.00 0.00 0.00 0.00 0.00 0.00 0.00 0.00 0.00 0.00 0.00 0.00 0.00 0.00 0.00 0.00 0.00 0.00 0.00 0.00 0.00 0.00 0.00 0.00 0.00 0.00 0.00 0.00 0.00 0.00 0.00 0.00 0.00 0.00 0.00 0.00 0.00 0.00
0.00 0.00 0.00 0.00 0.00 0.00 0.00 0.00 0.00 0.00 0.00 0.00 0.00 0.00 0.00 0.00 0.00 0.00 0.00 0.00 0.00 0.00 0.00 0.00 0.00 0.00 0.00 0.00 0.00 0.00 0.00 0.00 0.00 0.00 0.00 0.00 0.00 0.00 0.00 0.00 0.00 0.00 0.00 0.00 0.00 0.00 0.00 0.00 0.00 0.00 0.00 0.00 0.00 0.00
0.00 0.00 0.00 0.00 0.00 0.00 0.00 0.00 0.00 0.00 0.00 0.00 0.00 0.00 0.00 0.00 0.00 0.00 0.00 0.00 0.00 0.00 0.00 0.00 0.00 0.00 0.00 0.00 0.00 0.00 0.00 0.00 0.00 0.00 0.00 0.00 0.00 0.00 0.00 0.00 0.00 0.00 0.00 0.00 0.00 0.00 0.00 0.00 0.00 0.00 0.00 0.00 0.00 0.00
0.00 0.00 0.00 0.00 0.00 0.00 0.00 0.00 0.00 0.00 0.00 0.00 0.00 0.00 0.00 0.00 0.00 0.00 0.00 0.00 0.00 0.00 0.00 0.00 0.00 0.00 0.00 0.00 0.00 0.00 0.00 0.00 0.00 0.00 0.00 0.00 0.00 0.00 0.00 0.00 0.00 0.00 0.00 0.00 0.00 0.00 0.00 0.00 0.00 0.00 0.00 0.00 0.00 0.00
0.00 0.00 0.00 0.00 0.00 0.00 0.00 0.00 0.00 0.00 0.00 0.00 0.00 0.00 0.00 0.00 0.00 0.00 0.00 0.00 0.00 0.00 0.00 0.00 0.00 0.00 0.00 0.00 0.00 0.00 0.00 0.00 0.00 0.00 0.00 0.00 0.00 0.00 0.00 0.00 0.00 0.00 0.00 0.00 0.00 0.00 0.00 0.00 0.00 0.00 0.00 0.00 0.00 0.00
0.00 0.00 0.00 0.00 0.00 0.00 0.00 0.00 0.00 0.00 0.00 0.00 0.00 0.00 0.00 0.00 0.00 0.00 0.00 0.00 0.00 0.00 0.00 0.00 0.00 0.00 0.00 0.00 0.00 0.00 0.00 0.00 0.00 0.00 0.00 0.00 0.00 0.00 0.00 0.00 0.00 0.00 0.00 0.00 0.00 0.00 0.00 0.00 0.00 0.00 0.00 0.00 0.00 0.00
0.00 0.00 0.00 0.00 0.00 0.00 0.00 0.00 0.00 0.00 0.00 0.00 0.00 0.00 0.00 0.00 0.00 0.00 0.00 0.00 0.00 0.00 0.00 0.00 0.00 0.00 0.00 0.00 0.00 0.00 0.00 0.00 0.00 0.00 0.00 0.00 0.00 0.00 0.00 0.00 0.00 0.00 0.00 0.00 0.00 0.00 0.00 0.00 0.00 0.00 0.00 0.00 0.00 0.00
0.00 0.00 0.00 0.00 0.00 0.00 0.00 0.00 0.00 0.00 0.00 0.00 0.00 0.00 0.00 0.00 0.00 0.00 0.00 0.00 0.00 0.00 0.00 0.00 0.00 0.00 0.00 0.00 0.00 0.00 0.00 0.00 0.00 0.00 0.00 0.00 0.00 0.00 0.00 0.00 0.00 0.00 0.00 0.00 0.00 0.00 0.00 0.00 0.00 0.00 0.00 0.00 0.00 0.00
0.00 0.00 0.00 0.00 0.00 0.00 0.00 0.00 0.00 0.00 0.00 0.00 0.00 0.00 0.00 0.00 0.00 0.00 0.00 0.00 0.00 0.00 0.00 0.00 0.00 0.00 0.00 0.00 0.00 0.00 0.00 0.00 0.00 0.00 0.00 0.00 0.00 0.00 0.00 0.00 0.00 0.00 0.00 0.00 0.00 0.00 0.00 0.00 0.00 0.00 0.00 0.00 0.00 0.00
0.00 0.00 0.00 0.00 0.00 0.00 0.00 0.00 0.00 0.00 0.00 0.00 0.00 0.00 0.00 0.00 0.00 0.00 0.00 0.00 0.00 0.00 0.00 0.00 0.00 0.00 0.00 0.00 0.00 0.00 0.00 0.00 0.00 0.00 0.00 0.00 0.00 0.00 0.00 0.00 0.00 0.00 0.00 0.00 0.00 0.00 0.00 0.00 0.00 0.00 0.00 0.00 0.00 0.00
0.00 0.00 0.00 0.00 0.00 0.00 0.00 0.00 0.00 0.00 0.00 0.00 0.00 0.00 0.00 0.00 0.00 0.00 0.00 0.00 0.00 0.00 0.00 0.00 0.00 0.00 0.00 0.00 0.00 0.00 0.00 0.00 0.00 0.00 0.00 0.00 0.00 0.00 0.00 0.00 0.00 0.00 0.00 0.00 0.00 0.00 0.00 0.00 0.00 0.00 0.00 0.00 0.00 0.00
0.00 0.00 0.00 0.00 0.00 0.00 0.00 0.00 0.00 0.00 0.00 0.00 0.00 0.00 0.00 0.00 0.00 0.00 0.00 0.00 0.00 0.00 0.00 0.00 0.00 0.00 0.00 0.00 0.00 0.00 0.00 0.00 0.00 0.00 0.00 0.00 0.00 0.00 0.00 0.00 0.00 0.00 0.00 0.00 0.00 0.00 0.00 0.00 0.00 0.00 0.00 0.00 0.00 0.00
MSLP
1004.92 1006.03 1006.74 1007.16 1007.91 1008.66 1009.34 1009.87 1010.19 1010.57 1010.80 1010.75 1010.58 1010.48 1010.33 1010.07 1009.84 1009.79 1011.10 1010.78 1011.14 1012.99 1013.66 1013.29 1013.07 1013.15 1013.78 1014.44 1015.67 1016.67 1017.50 1018.39 1020.01 1021.80 1023.21 1023.78 1023.55 1022.66 1022.58 1022.35 1022.61 1023.34 1024.46 1025.19 1025.65 1024.81 1021.59 1019.20 1019.26 1019.42 1019.25 1019.58 1020.16 1020.97
1004.90 1005.94 1006.75 1007.51 1008.33 1008.94 1009.61 1010.08 1010.48 1010.87 1011.06 1011.11 1011.02 1010.87 1010.71 1010.42 1010.22 1010.06 1011.33 1011.11 1011.21 1012.69 1013.93 1013.58 1013.50 1013.38 1013.23 1013.42 1014.31 1015.98 1016.79 1017.77 1018.87 1021.18 1022.91 1023.41 1023.71 1023.28 1022.81 1022.47 1021.70 1022.03 1021.27 1021.83 1022.16 1020.69 1019.08 1018.36 1017.94 1017.99 1018.49 1019.29 1020.04 1020.57
1005.64 1006.50 1007.34 1008.04 1008.69 1009.33 1009.91 1010.39 1010.77 1011.10 1011.31 1011.39 1011.33 1011.23 1011.06 1010.78 1010.47 1010.22 1011.43 1011.73 1012.06 1013.60 1014.41 1014.16 1014.01 1013.65 1013.28 1013.44 1013.35 1014.74 1016.50 1016.79 1018.29 1019.08 1021.54 1022.73 1023.25 1022.92 1022.72 1021.90 1020.97 1019.96 1019.76 1020.25 1020.40 1018.76 1018.51 1018.12 1018.15 1018.25 1018.63 1019.12 1019.80 1020.18
1006.25 1007.08 1007.73 1008.42 1009.03 1009.68 1010.21 1010.63 1011.02 1011.37 1011.59 1011.75 1011.76 1011.65 1011.50 1011.22 1010.89 1010.64 1011.79 1012.33 1012.91 1014.58 1015.33 1015.26 1014.30 1014.26 1013.94 1013.57 1013.54 1013.92 1014.83 1016.28 1017.87 1019.37 1021.34 1022.30 1022.61 1021.85 1021.72 1020.97 1020.53 1019.10 1018.88 1018.78 1019.01 1018.46 1018.38 1018.41 1018.46 1018.66 1019.11 1019.51 1019.99 1020.43
1006.84 1007.55 1008.18 1008.82 1009.41 1010.05 1010.54 1010.98 1011.34 1011.73 1012.05 1012.21 1012.13 1012.01 1011.85 1011.67 1011.55 1011.51 1012.15 1012.92 1012.82 1013.74 1015.52 1015.93 1015.31 1015.02 1014.62 1014.41 1014.52 1014.71 1015.39 1016.64 1018.39 1020.25 1021.43 1021.78 1021.38 1021.51 1021.30 1020.95 1020.07 1018.09 1017.42 1017.67 1017.76 1017.53 1017.73 1018.13 1018.47 1018.85 1019.32 1019.74 1020.06 1020.50
1007.57 1008.17 1008.80 1009.31 1009.89 1010.43 1010.86 1011.34 1011.78 1012.18 1012.40 1012.52 1012.49 1012.31 1012.14 1011.97 1011.84 1012.32 1013.25 1013.33 1013.31 1013.40 1015.35 1016.77 1016.66 1016.11 1015.60 1015.21 1015.48 1015.92 1016.37 1017.20 1018.34 1019.56 1020.58 1020.53 1019.66 1019.99 1020.85 1020.36 1018.15 1016.96 1016.44 1016.32 1016.66 1016.80 1017.29 1017.75 1018.48 1018.92 1019.37 1019.76 1020.32 1020.93
1008.84 1009.19 1009.58 1009.95 1010.40 1010.83 1011.27 1011.70 1012.13 1012.44 1012.66 1012.78 1012.73 1012.62 1012.51 1012.23 1012.46 1013.41 1014.24 1014.30 1013.78 1013.77 1015.74 1017.72 1017.64 1017.17 1016.72 1016.58 1017.14 1017.34 1017.39 1017.92 1018.44 1019.46 1020.14 1020.26 1019.89 1019.62 1020.00 1019.19 1017.10 1016.39 1016.03 1016.18 1016.43 1017.00 1018.18 1018.33 1018.64 1018.94 1019.31 1020.03 1020.79 1021.44
1010.16 1010.29 1010.71 1011.03 1011.13 1011.43 1011.73 1012.03 1012.38 1012.74 1013.00 1013.08 1012.96 1012.88 1012.92 1013.09 1013.52 1014.19 1014.39 1014.14 1014.03 1014.74 1016.21 1018.07 1018.89 1018.36 1017.56 1018.24 1018.89 1018.78 1018.92 1018.90 1019.11 1019.60 1019.99 1020.14 1019.96 1019.93 1019.15 1017.07 1016.25 1015.82 1015.71 1016.38 1016.68 1016.89 1017.23 1017.92 1018.47 1019.11 1019.81 1020.68 1021.39 1022.15
1011.26 1011.43 1011.60 1011.85 1011.87 1011.92 1012.03 1012.25 1012.60 1012.97 1013.27 1013.29 1013.13 1013.12 1013.29 1013.94 1014.90 1015.17 1014.73 1014.53 1014.25 1015.39 1017.39 1018.71 1018.97 1018.77 1018.38 1019.20 1019.66 1019.70 1019.76 1020.17 1020.15 1020.08 1020.09 1020.21 1020.01 1019.20 1017.04 1016.56 1016.13 1015.77 1015.85 1016.26 1017.00 1017.28 1017.84 1018.34 1019.06 1019.69 1020.31 1021.20 1021.72 1022.52
1012.33 1012.26 1012.38 1012.40 1012.26 1012.33 1012.44 1012.58 1012.90 1013.21 1013.44 1013.57 1013.64 1014.25 1015.43 1015.78 1015.61 1015.25 1015.06 1015.19 1015.42 1016.38 1017.28 1018.58 1018.91 1019.08 1018.99 1019.93 1020.41 1020.81 1020.74 1020.73 1020.53 1020.15 1019.99 1019.69 1018.66 1017.44 1016.77 1016.31 1015.98 1015.61 1015.58 1016.23 1016.99 1017.83 1018.32 1019.24 1019.84 1020.44 1021.06 1021.60 1022.08 1022.74
1013.22 1013.19 1013.15 1012.90 1012.91 1012.93 1012.97 1012.96 1013.17 1013.57 1013.74 1014.33 1015.30 1016.05 1016.31 1015.76 1015.67 1016.44 1016.87 1017.21 1017.59 1018.04 1018.31 1018.71 1018.86 1019.02 1019.20 1019.83 1020.38 1020.68 1020.87 1020.86 1020.76 1020.22 1020.18 1019.58 1018.75 1017.67 1016.68 1016.43 1016.26 1016.15 1016.41 1016.81 1017.28 1018.04 1019.24 1019.90 1020.60 1021.13 1021.68 1022.18 1022.65 1023.11
1013.98 1013.93 1013.90 1013.77 1013.65 1013.50 1013.38 1013.52 1013.58 1013.98 1014.81 1015.10 1015.50 1016.36 1016.54 1016.81 1017.17 1017.63 1017.99 1018.34 1018.45 1019.03 1019.16 1019.10 1019.25 1019.25 1019.47 1019.40 1020.10 1020.74 1020.71 1020.92 1020.40 1020.05 1020.13 1019.32 1018.57 1018.15 1017.69 1017.57 1017.57 1017.47 1017.65 1018.11 1018.97 1019.78 1020.36 1020.64 1021.06 1021.67 1022.22 1022.71 1023.12 1023.32
1014.75 1014.78 1014.73 1014.64 1014.44 1014.33 1014.12 1014.20 1014.30 1014.75 1015.06 1015.57 1016.15 1017.18 1017.43 1018.59 1018.50 1018.35 1018.62 1019.06 1019.31 1019.48 1019.60 1019.73 1019.82 1019.78 1019.68 1019.78 1020.23 1020.49 1020.58 1020.44 1020.04 1020.14 1019.87 1019.54 1018.76 1018.92 1018.86 1018.90 1019.05 1019.20 1019.32 1019.88 1020.27 1020.64 1021.05 1021.63 1022.02 1022.35 1022.70 1022.92 1023.22 1023.52
1015.52 1015.45 1015.56 1015.44 1015.28 1015.18 1015.14 1015.09 1014.98 1015.16 1015.37 1016.68 1017.53 1018.37 1018.71 1019.18 1019.37 1019.39 1019.52 1019.68 1020.05 1020.06 1020.14 1020.18 1020.40 1020.36 1020.36 1020.23 1020.30 1020.33 1020.30 1020.25 1020.16 1020.31 1020.49 1020.12 1019.61 1019.74 1019.86 1019.89 1019.91 1020.54 1020.74 1020.96 1021.27 1021.46 1021.84 1022.23 1022.57 1022.96 1023.02 1022.95 1023.45 1023.52
1016.12 1016.17 1016.17 1016.20 1016.04 1015.82 1015.60 1015.33 1015.18 1015.38 1016.69 1017.98 1018.47 1019.27 1019.64 1020.07 1020.11 1020.19 1020.31 1020.39 1020.51 1020.46 1020.51 1020.58 1020.68 1020.70 1020.71 1020.75 1020.67 1020.70 1020.66 1020.57 1020.55 1020.91 1021.04 1020.89 1020.72 1020.63 1020.80 1020.85 1021.02 1021.37 1021.59 1021.62 1021.82 1022.06 1022.29 1022.56 1022.83 1022.99 1022.83 1022.87 1023.01 1023.11
1016.54 1016.48 1016.92 1016.83 1016.54 1016.27 1015.99 1015.87 1015.91 1016.55 1018.09 1018.89 1019.41 1019.97 1020.25 1020.30 1020.56 1020.62 1020.73 1020.83 1020.94 1020.96 1020.95 1020.92 1020.86 1020.93 1021.09 1021.01 1021.03 1020.84 1020.93 1021.21 1021.60 1021.58 1021.61 1021.48 1021.43 1021.53 1021.76 1021.83 1021.83 1021.84 1021.95 1022.07 1022.17 1022.32 1022.50 1022.64 1022.86 1022.95 1022.76 1022.69 1022.64 1022.77
1016.84 1017.55 1017.39 1017.19 1016.88 1016.53 1016.37 1016.63 1017.04 1018.10 1019.12 1019.60 1020.26 1020.21 1020.41 1020.70 1021.02 1021.21 1021.24 1021.31 1021.09 1021.31 1021.54 1021.41 1021.39 1021.50 1021.41 1021.31 1021.31 1021.25 1021.63 1021.89 1021.90 1021.84 1021.63 1021.64 1021.76 1021.94 1022.16 1022.27 1022.27 1022.30 1022.35 1022.40 1022.41 1022.45 1022.55 1022.52 1022.60 1022.90 1022.79 1022.22 1022.06 1021.93
1018.06 1018.01 1017.75 1017.52 1017.21 1017.05 1017.22 1017.56 1018.50 1019.14 1019.95 1020.46 1020.69 1020.92 1021.01 1021.25 1021.47 1021.55 1021.63 1021.59 1021.53 1021.70 1021.78 1021.86 1021.80 1022.00 1021.92 1021.75 1021.65 1021.89 1022.05 1022.08 1022.02 1021.94 1022.00 1021.98 1021.96 1022.03 1022.05 1022.06 1022.03 1022.14 1022.28 1022.40 1022.43 1022.47 1022.41 1022.56 1022.57 1022.38 1022.11 1021.62 1021.54 1021.37
1018.92 1018.65 1018.40 1018.13 1017.95 1018.09 1018.67 1018.78 1019.02 1020.20 1020.64 1020.86 1021.09 1021.32 1021.64 1021.88 1021.97 1021.93 1021.90 1021.73 1021.66 1021.78 1022.09 1022.27 1022.57 1022.61 1022.36 1022.09 1021.98 1022.07 1022.05 1022.23 1022.34 1022.33 1022.35 1022.31 1022.33 1022.36 1022.33 1022.29 1022.31 1022.36 1022.43 1022.50 1022.53 1022.44 1022.32 1022.09 1021.99 1021.74 1021.41 1021.22 1021.33 1020.98
1019.22 1019.15 1018.96 1018.70 1018.45 1019.03 1019.79 1020.09 1019.77 1020.38 1020.85 1021.24 1021.38 1021.94 1022.21 1022.31 1022.34 1022.29 1022.26 1022.13 1022.10 1022.49 1022.86 1023.14 1023.07 1022.51 1022.31 1022.03 1021.88 1022.05 1022.30 1022.43 1022.62 1023.02 1023.08 1023.00 1022.83 1022.80 1022.78 1022.73 1022.63 1022.65 1022.76 1022.51 1022.42 1022.30 1022.13 1021.85 1021.52 1021.24 1020.96 1020.82 1020.90 1020.49
1019.54 1019.79 1019.44 1019.20 1019.56 1019.90 1020.44 1020.36 1020.53 1020.68 1020.92 1021.28 1021.78 1022.00 1022.56 1022.58 1022.58 1022.59 1022.62 1022.44 1022.79 1023.11 1023.02 1022.76 1022.72 1022.15 1021.95 1021.90 1022.00 1022.22 1022.48 1022.55 1022.91 1023.21 1023.63 1023.62 1023.46 1023.46 1023.40 1023.28 1023.10 1023.10 1023.30 1023.16 1022.99 1022.70 1022.49 1022.23 1021.72 1021.20 1020.87 1020.52 1020.24 1019.97
1020.53 1020.35 1020.47 1020.50 1020.75 1020.93 1020.95 1020.83 1021.03 1020.88 1021.05 1021.36 1021.73 1022.08 1022.60 1022.87 1022.98 1023.01 1022.89 1022.96 1023.24 1023.05 1022.83 1022.56 1022.34 1022.38 1022.46 1022.60 1022.87 1022.95 1022.94 1023.14 1023.51 1024.01 1024.16 1024.21 1024.44 1024.48 1024.52 1024.55 1024.31 1024.34 1024.31 1024.12 1023.78 1023.36 1022.90 1022.49 1022.02 1021.43 1020.77 1020.06 1019.61 1019.26
1020.86 1020.93 1021.22 1021.31 1021.67 1021.76 1021.76 1021.16 1021.33 1021.47 1021.72 1021.90 1022.10 1022.48 1022.84 1023.03 1023.20 1023.27 1023.47 1023.33 1023.28 1023.34 1023.11 1022.80 1022.66 1022.76 1023.18 1023.63 1023.74 1024.10 1024.26 1024.31 1024.72 1025.03 1025.21 1025.40 1025.45 1025.44 1025.46 1025.31 1025.08 1025.06 1025.00 1024.76 1024.57 1024.19 1023.73 1023.09 1022.38 1021.70 1020.77 1019.80 1019.18 1018.84
1021.33 1021.66 1021.98 1021.98 1022.15 1022.46 1022.12 1021.92 1021.88 1021.86 1021.94 1022.15 1022.53 1022.89 1023.17 1023.38 1023.83 1023.97 1024.16 1023.82 1024.05 1024.07 1023.90 1023.69 1023.38 1023.74 1024.10 1024.53 1025.05 1025.63 1025.82 1025.83 1025.94 1026.05 1026.08 1026.02 1026.16 1026.18 1026.10 1026.15 1026.12 1026.42 1026.51 1026.05 1025.60 1025.18 1024.57 1023.89 1023.13 1022.26 1021.35 1020.40 1019.44 1018.67
1022.15 1022.58 1022.68 1022.53 1022.38 1022.76 1022.73 1022.42 1022.19 1022.34 1022.36 1022.58 1022.96 1023.37 1023.70 1023.99 1024.77 1024.86 1024.55 1024.48 1024.63 1024.81 1024.85 1024.73 1024.51 1024.71 1025.18 1025.82 1026.40 1026.75 1026.98 1026.85 1026.80 1026.82 1026.81 1026.76 1026.94 1027.16 1027.22 1027.26 1027.32 1027.33 1027.29 1026.79 1026.23 1025.87 1025.31 1024.63 1023.86 1022.99 1022.04 1020.97 1020.14 1019.18
1022.34 1022.61 1022.76 1022.17 1022.37 1022.55 1022.43 1022.43 1022.26 1022.24 1022.42 1022.80 1023.26 1023.61 1024.08 1024.89 1025.46 1025.56 1025.10 1025.20 1025.34 1025.54 1025.69 1025.87 1026.00 1026.16 1026.43 1026.82 1027.13 1027.58 1027.97 1027.84 1027.71 1027.69 1027.79 1027.82 1028.09 1028.35 1028.50 1028.43 1028.25 1028.03 1028.11 1027.91 1027.22 1026.59 1025.97 1025.17 1024.34 1023.43 1022.45 1021.46 1020.44 1019.59
1022.33 1022.45 1022.20 1021.91 1021.93 1021.89 1022.04 1021.95 1021.83 1022.04 1022.43 1022.85 1023.39 1024.24 1025.12 1025.73 1025.86 1025.81 1025.94 1026.14 1026.19 1026.34 1026.50 1026.75 1026.85 1027.10 1027.45 1027.74 1028.22 1028.76 1028.77 1028.64 1028.71 1028.72 1028.66 1028.93 1029.24 1029.50 1029.71 1029.76 1029.46 1029.32 1028.83 1028.39 1027.86 1027.29 1026.57 1025.67 1024.70 1023.75 1022.74 1021.66 1020.82 1020.04
1021.90 1021.90 1022.11 1022.04 1021.85 1021.82 1022.04 1022.09 1022.05 1022.18 1022.44 1022.65 1023.49 1024.66 1025.45 1025.91 1026.60 1026.81 1026.88 1027.14 1027.04 1027.29 1027.59 1027.86 1028.11 1028.36 1028.54 1028.90 1029.34 1029.61 1029.70 1029.52 1029.27 1029.15 1029.35 1029.59 1029.88 1030.02 1030.15 1030.26 1030.01 1029.25 1029.21 1028.75 1028.13 1027.36 1026.78 1026.03 1025.00 1023.90 1022.66 1021.60 1020.97 1020.76
1021.92 1022.04 1022.24 1022.26 1022.21 1022.20 1022.21 1022.24 1022.09 1022.19 1022.32 1022.67 1023.85 1025.19 1026.18 1027.09 1027.89 1027.78 1028.10 1028.13 1028.06 1028.26 1028.80 1029.19 1029.67 1029.62 1029.89 1030.22 1030.32 1030.40 1030.43 1030.67 1030.66 1030.97 1031.05 1031.19 1030.86 1030.59 1030.42 1030.31 1030.10 1029.67 1029.03 1028.58 1027.78 1027.41 1026.71 1025.85 1024.87 1023.81 1022.61 1022.25 1022.20 1022.13
1022.40 1022.33 1022.66 1022.70 1022.87 1022.73 1022.76 1022.65 1022.57 1022.67 1022.56 1023.05 1024.06 1025.67 1027.11 1028.44 1029.14 1029.09 1029.20 1029.34 1029.55 1029.97 1030.32 1030.70 1030.97 1031.00 1031.77 1031.82 1031.99 1031.57 1031.34 1031.34 1031.46 1031.74 1031.81 1031.62 1031.25 1030.95 1030.71 1030.45 1030.07 1029.59 1029.13 1028.65 1028.04 1027.31 1026.42 1025.66 1024.74 1023.74 1023.45 1023.21 1023.29 1023.41
1022.83 1022.80 1022.96 1023.05 1023.26 1023.25 1023.21 1023.22 1023.14 1023.25 1023.33 1023.65 1024.45 1026.02 1027.99 1029.34 1030.07 1030.39 1030.46 1030.70 1031.05 1031.26 1031.52 1032.15 1032.16 1032.25 1032.31 1032.38 1032.68 1032.51 1032.51 1032.25 1032.10 1031.90 1031.62 1031.37 1031.25 1031.28 1031.07 1030.65 1030.16 1029.63 1029.23 1028.82 1028.39 1027.79 1027.07 1026.32 1025.64 1025.06 1024.78 1024.62 1024.60 1024.60
1023.54 1023.69 1023.75 1024.02 1024.26 1024.00 1023.72 1023.97 1024.11 1024.31 1024.48 1024.87 1025.87 1027.14 1028.72 1029.81 1030.96 1031.43 1031.74 1031.81 1032.01 1032.65 1032.74 1032.81 1033.13 1033.10 1032.78 1032.77 1032.82 1032.82 1032.77 1032.66 1032.47 1032.17 1031.73 1031.31 1031.49 1031.22 1030.92 1030.41 1030.04 1029.69 1029.50 1029.12 1028.63 1028.11 1027.38 1027.01 1026.64 1026.28 1025.97 1025.86 1025.79 1025.75
1024.66 1024.81 1025.15 1025.62 1025.76 1025.74 1025.50 1025.74 1026.20 1026.30 1026.11 1026.58 1027.33 1028.20 1029.46 1030.26 1031.35 1031.80 1031.75 1032.12 1032.61 1032.99 1033.37 1033.27 1033.07 1033.09 1032.85 1032.95 1033.02 1033.06 1032.62 1032.58 1032.16 1031.50 1031.18 1030.74 1030.83 1030.75 1030.60 1030.45 1030.12 1030.26 1029.94 1029.50 1029.06 1028.58 1028.23 1027.94 1027.60 1027.28 1027.02 1026.86 1026.78 1026.70
Thickness
5497 5499 5502 5509 5516 5521 5525 5529 5534 5538 5544 5551 5560 5568 5576 5586 5594 5601 5598 5607 5608 5590 5597 5604 5610 5613 5609 5604 5587 5593 5585 5578 5559 5550 5533 5548 5521 5553 5559 5568 5553 5543 5529 5513 5499 5485 5530 5574 5571 5556 5558 5556 5547 5533
5497 5498 5502 5507 5513 5519 5522 5526 5531 5535 5541 5548 5555 5563 5571 5579 5587 5595 5592 5599 5604 5597 5591 5598 5602 5607 5611 5612 5600 5589 5589 5583 5573 5551 5540 5545 5525 5542 5539 5547 5566 5560 5556 5544 5549 5550 5571 5572 5573 5568 5558 5546 5535 5525
5494 5495 5499 5506 5511 5515 5519 5523 5528 5533 5538 5544 5551 5558 5566 5574 5582 5589 5585 5589 5590 5575 5578 5585 5588 5597 5603 5605 5608 5587 5574 5586 5577 5568 5544 5530 5529 5531 5532 5538 5561 5570 5566 5545 5553 5572 5565 5566 5559 5553 5545 5534 5525 5519
5492 5494 5498 5503 5508 5511 5515 5520 5525 5529 5535 5540 5547 5554 5560 5568 5575 5581 5577 5578 5577 5561 5545 5566 5581 5583 5590 5595 5599 5597 5590 5579 5565 5552 5535 5530 5521 5542 5522 5540 5534 5559 5561 5560 5543 5558 5553 5549 5546 5535 5525 5518 5512 5506
5490 5493 5496 5500 5504 5507 5511 5516 5520 5524 5529 5535 5541 5548 5555 5561 5566 5570 5571 5569 5573 5570 5547 5546 5566 5571 5576 5580 5581 5581 5577 5569 5552 5535 5528 5526 5515 5526 5516 5514 5525 5561 5559 5539 5532 5551 5548 5538 5527 5521 5513 5508 5504 5495
5486 5489 5492 5496 5499 5503 5507 5511 5515 5519 5524 5529 5535 5542 5549 5554 5559 5560 5554 5561 5564 5566 5548 5534 5546 5555 5560 5566 5565 5565 5563 5557 5546 5533 5521 5526 5546 5530 5519 5533 5550 5559 5560 5555 5549 5547 5538 5526 5516 5511 5505 5497 5488 5474
5476 5481 5485 5490 5493 5497 5501 5506 5509 5514 5519 5523 5529 5536 5541 5548 5550 5545 5544 5548 5555 5557 5536 5525 5522 5538 5546 5549 5541 5544 5543 5541 5540 5523 5518 5522 5521 5528 5510 5521 5547 5549 5551 5546 5537 5529 5515 5509 5502 5500 5496 5483 5468 5456
5466 5472 5475 5479 5486 5490 5495 5500 5503 5508 5512 5517 5523 5528 5532 5536 5537 5535 5536 5542 5546 5541 5529 5511 5509 5518 5535 5515 5516 5519 5513 5520 5523 5522 5513 5510 5507 5501 5515 5536 5542 5545 5541 5528 5522 5519 5510 5500 5496 5486 5472 5459 5448 5436
5457 5462 5467 5472 5479 5485 5489 5493 5497 5500 5504 5509 5515 5520 5523 5521 5519 5523 5528 5533 5537 5532 5511 5500 5508 5516 5519 5509 5502 5499 5502 5498 5501 5503 5500 5500 5497 5509 5529 5529 5531 5529 5523 5514 5506 5501 5496 5490 5478 5464 5454 5441 5432 5420
5447 5455 5460 5466 5474 5478 5483 5487 5490 5493 5497 5500 5505 5502 5499 5499 5507 5514 5515 5510 5507 5508 5505 5498 5502 5502 5508 5491 5491 5488 5483 5486 5494 5494 5492 5489 5505 5513 5512 5516 5519 5518 5513 5505 5494 5486 5477 5463 5454 5446 5435 5426 5416 5404
5438 5446 5452 5459 5465 5471 5475 5479 5483 5486 5488 5489 5485 5481 5486 5495 5500 5491 5492 5493 5493 5493 5496 5494 5494 5499 5492 5489 5488 5474 5477 5474 5487 5476 5474 5475 5488 5495 5505 5504 5502 5502 5495 5488 5482 5470 5456 5447 5434 5424 5415 5404 5394 5387
5430 5437 5442 5449 5456 5462 5468 5472 5476 5477 5477 5480 5481 5477 5478 5478 5478 5484 5479 5477 5482 5488 5477 5486 5485 5487 5479 5482 5473 5466 5470 5463 5474 5466 5471 5478 5480 5481 5481 5479 5477 5476 5472 5465 5454 5443 5434 5427 5419 5406 5395 5386 5378 5368
5421 5427 5432 5438 5445 5451 5458 5462 5465 5466 5469 5469 5467 5463 5471 5455 5470 5482 5483 5473 5477 5466 5467 5466 5472 5464 5466 5466 5459 5459 5464 5465 5455 5464 5466 5460 5474 5464 5459 5455 5450 5446 5440 5433 5428 5420 5412 5402 5394 5387 5375 5369 5356 5351
5411 5417 5422 5427 5433 5438 5444 5449 5454 5457 5460 5453 5454 5453 5455 5453 5450 5451 5456 5458 5450 5451 5451 5451 5450 5452 5446 5453 5447 5457 5447 5443 5453 5446 5430 5445 5447 5443 5438 5432 5429 5417 5409 5405 5400 5397 5390 5378 5370 5361 5353 5347 5337 5333
5400 5404 5410 5414 5420 5427 5432 5439 5445 5448 5440 5436 5433 5438 5431 5427 5429 5431 5432 5435 5433 5435 5437 5440 5438 5438 5437 5436 5433 5430 5432 5436 5433 5428 5422 5416 5417 5415 5409 5406 5400 5393 5384 5383 5381 5374 5363 5357 5351 5348 5342 5336 5331 5321
5392 5396 5397 5401 5408 5415 5421 5427 5430 5428 5415 5420 5419 5419 5415 5423 5422 5422 5422 5423 5421 5421 5421 5423 5428 5431 5423 5421 5422 5426 5424 5415 5407 5403 5398 5397 5397 5393 5389 5383 5379 5376 5373 5369 5364 5360 5353 5342 5334 5335 5329 5321 5315 5306
5386 5385 5389 5393 5399 5405 5410 5412 5410 5407 5399 5411 5402 5402 5405 5406 5405 5407 5405 5407 5409 5412 5413 5413 5411 5407 5403 5406 5410 5408 5403 5397 5392 5387 5384 5384 5381 5376 5371 5367 5360 5360 5357 5353 5349 5344 5339 5333 5323 5315 5313 5313 5307 5301
5377 5381 5384 5389 5394 5398 5399 5398 5391 5389 5391 5387 5392 5388 5388 5388 5391 5391 5389 5390 5393 5395 5394 5393 5390 5394 5395 5394 5394 5391 5382 5378 5374 5374 5371 5370 5367 5362 5361 5358 5354 5349 5344 5338 5329 5326 5322 5312 5310 5307 5304 5303 5298 5292
5368 5373 5377 5381 5385 5385 5384 5384 5386 5380 5380 5377 5375 5374 5373 5373 5371 5372 5374 5376 5376 5373 5372 5370 5372 5373 5372 5370 5372 5371 5366 5362 5362 5361 5359 5356 5352 5347 5342 5338 5335 5330 5325 5321 5317 5310 5306 5304 5298 5295 5292 5288 5284 5279
5360 5364 5368 5372 5376 5369 5370 5368 5373 5371 5372 5369 5367 5364 5362 5363 5361 5362 5364 5365 5365 5356 5350 5348 5350 5352 5355 5355 5354 5352 5349 5347 5344 5337 5335 5335 5333 5331 5327 5323 5317 5315 5309 5306 5302 5296 5293 5291 5287 5283 5279 5274 5269 5272
5353 5353 5358 5363 5361 5361 5358 5364 5368 5363 5361 5361 5356 5356 5350 5352 5354 5353 5354 5351 5344 5333 5344 5345 5341 5347 5350 5347 5343 5341 5341 5341 5335 5326 5321 5316 5314 5309 5306 5304 5301 5294 5288 5284 5279 5282 5274 5271 5273 5272 5264 5265 5260 5255
5337 5340 5342 5344 5345 5346 5344 5349 5349 5350 5355 5353 5350 5346 5343 5345 5344 5343 5338 5338 5333 5334 5340 5338 5342 5338 5340 5341 5336 5333 5331 5326 5320 5312 5307 5304 5299 5292 5285 5280 5278 5273 5267 5262 5263 5263 5262 5258 5255 5252 5253 5253 5249 5246
5325 5327 5327 5328 5322 5332 5331 5336 5342 5341 5332 5337 5336 5335 5332 5330 5329 5325 5333 5332 5326 5327 5327 5331 5334 5333 5328 5320 5317 5311 5308 5305 5298 5292 5287 5280 5274 5268 5262 5258 5256 5253 5250 5247 5243 5240 5237 5235 5235 5234 5236 5237 5236 5234
5308 5309 5307 5305 5314 5311 5317 5322 5319 5326 5324 5326 5325 5325 5320 5323 5311 5313 5297 5318 5315 5310 5312 5314 5316 5315 5310 5304 5296 5289 5284 5280 5275 5270 5266 5262 5256 5250 5245 5239 5235 5226 5220 5220 5218 5214 5213 5212 5211 5213 5213 5215 5218 5219
5290 5281 5280 5288 5294 5297 5293 5301 5309 5304 5294 5303 5297 5294 5303 5292 5281 5278 5285 5309 5302 5299 5295 5295 5298 5297 5293 5284 5275 5269 5263 5259 5254 5250 5247 5243 5234 5226 5222 5217 5210 5204 5199 5198 5197 5193 5191 5189 5189 5189 5192 5195 5196 5199
5260 5261 5265 5272 5270 5282 5283 5284 5285 5293 5290 5295 5290 5296 5275 5271 5281 5282 5301 5287 5286 5283 5280 5280 5272 5273 5270 5264 5260 5252 5242 5237 5233 5229 5225 5221 5212 5203 5196 5192 5190 5185 5177 5172 5173 5172 5170 5170 5170 5171 5172 5174 5177 5179
5258 5262 5274 5279 5283 5289 5284 5287 5295 5297 5299 5299 5297 5289 5276 5270 5259 5286 5277 5271 5271 5268 5266 5262 5260 5256 5250 5244 5237 5226 5220 5216 5210 5207 5202 5195 5187 5180 5173 5167 5165 5160 5158 5155 5152 5150 5150 5151 5152 5152 5153 5157 5158 5160
5272 5272 5274 5281 5287 5287 5288 5287 5290 5293 5288 5292 5285 5276 5276 5268 5273 5261 5260 5256 5255 5251 5246 5241 5236 5231 5227 5221 5213 5205 5199 5194 5190 5187 5182 5175 5166 5159 5154 5148 5144 5142 5139 5135 5132 5131 5129 5128 5130 5132 5136 5140 5140 5134
5278 5278 5275 5275 5272 5273 5273 5276 5279 5286 5288 5282 5268 5256 5266 5252 5242 5246 5241 5237 5235 5233 5226 5218 5211 5208 5203 5196 5190 5185 5179 5174 5168 5153 5141 5135 5136 5137 5136 5132 5129 5127 5124 5121 5117 5114 5114 5114 5114 5115 5118 5114 5107 5101
5275 5273 5265 5257 5263 5276 5279 5278 5283 5279 5278 5274 5265 5254 5243 5229 5223 5222 5219 5216 5212 5206 5201 5195 5184 5180 5167 5165 5160 5163 5160 5153 5148 5138 5128 5123 5126 5126 5121 5118 5116 5113 5110 5107 5105 5103 5101 5099 5098 5099 5092 5085 5079 5073
5271 5274 5280 5274 5277 5273 5271 5270 5271 5271 5271 5272 5259 5245 5226 5210 5203 5199 5197 5191 5184 5180 5176 5165 5161 5154 5153 5149 5142 5134 5133 5134 5129 5125 5120 5117 5113 5108 5106 5103 5101 5099 5096 5094 5090 5087 5085 5082 5081 5076 5067 5059 5053 5048
5268 5267 5274 5263 5267 5260 5264 5265 5256 5253 5247 5251 5243 5224 5207 5190 5175 5175 5174 5169 5163 5156 5149 5143 5140 5137 5137 5133 5128 5123 5119 5115 5112 5110 5107 5104 5099 5097 5094 5092 5090 5087 5084 5079 5076 5073 5072 5067 5061 5053 5045 5037 5032 5028
5241 5221 5225 5213 5224 5234 5236 5224 5214 5215 5216 5213 5209 5196 5185 5179 5168 5161 5161 5157 5149 5140 5134 5131 5128 5125 5122 5116 5111 5108 5105 5103 5100 5097 5094 5092 5089 5087 5085 5082 5079 5075 5070 5066 5063 5061 5057 5050 5043 5037 5028 5021 5016 5013